Regional Weather Roundup
Issued by NWS Cleveland, OH

Home | Current Version | Previous Version | Graphics & Text | Print | Product List | Glossary On
Versions: 1 2 3 4 5 6 7 8 9 10 11 12 13 14 15 16 17 18 19 20 21 22 23 24 25 26 27 28 29 30 31 32 33 34 35 36 37 38 39 40 41 42 43 44 45 46 47 48 49 50
000
ASUS41 KCLE 252100
RWRCLE
OHIO REGIONAL WEATHER ROUNDUP
NATIONAL WEATHER SERVICE WILMINGTON, OH
500 PM EDT MON SEP 25 2017

NOTE: "FAIR" INDICATES FEW OR NO CLOUDS BELOW 12,000 FEET WITH NO
SIGNIFICANT WEATHER AND/OR OBSTRUCTIONS TO VISIBILITY.

OHZ001>008-015>018-024>027-034-035-043-044-252200-
   NORTHWEST OHIO

CITY           SKY/WX    TMP DP  RH WIND       PRES   REMARKS
DEFIANCE       FAIR      88  58  36 CALM      29.98F
FINDLAY        FAIR      88  61  40 NE3       29.97F
TOLEDO EXPRESS FAIR      90  64  42 CALM      29.97F HX  91
TOLEDO EXEC    FAIR      87  65  47 E8        29.99F
LIMA           FAIR      89  60  37 VRB5      29.98F
$$

OHZ009>014-019>023-028>033-038-089-252200-
   NORTHEAST OHIO

CITY           SKY/WX    TMP DP  RH WIND       PRES   REMARKS
CLE-HOPKINS    PTSUNNY   88  64  44 N12       30.02F
CLE-LAKEFRONT  FAIR      82  66  58 NE12      29.99F
CUY CO. ARPT   MOSUNNY   88  63  42 NW12      30.02F
LORAIN-ELYRIA  FAIR      87  61  41 NE7       30.00F
ASHTABULA      FAIR      87  66  49 NE6       30.04S
AKRON-CANTON   PTSUNNY   89  58  34 S7        30.03F
WOOSTER        NOT AVBL
MANSFIELD      FAIR      87  62  43 E7        30.02F
YOUNGSTOWN     PTSUNNY   88  63  43 VRB3      30.04F
$$

OHZ042-051>053-060>062-070>072-077>081-252200-
  SOUTHWEST OHIO

CITY           SKY/WX    TMP DP  RH WIND       PRES   REMARKS
CINC-COVINGTON PTSUNNY   85  63  47 S5        29.99F
CINC-LUNKEN    FAIR      85  67  54 S6        29.98F
HAMILTON       FAIR      86  64  47 W6        29.99F
DAYTON         NOT AVBL
WRIGHT-PAT AFB FAIR      85  59  40 S6        29.99F
DAYTON GENERAL FAIR      85  61  44 S6        30.00F
WILMINGTON     FAIR      84  61  45 S5        30.00F
$$

OHZ036-037-039>041-045>050-054>059-063>069-073>076-082>088-252200-
  CENTRAL AND SOUTHEAST OHIO

CITY           SKY/WX    TMP DP  RH WIND       PRES   REMARKS
COLUMBUS       PTSUNNY   88  63  43 NE6       29.99F
OSU AIRPORT    FAIR      86  64  47 SE7       29.99F
BOLTON FIELD   SUNNY     86  61  42 CALM      30.00F
RICKENBACK AFB NOT AVBL
NEWARK         FAIR      88  61  40 SE3       30.00F
MARION         PTSUNNY   87  59  38 SE8       30.00F
LANCASTER      FAIR      83  70  64 E6        30.00F
ZANESVILLE     FAIR      88  62  41 CALM      30.01F
NEW PHILLY     FAIR      90  58  33 VRB3      30.01F
$$




USA.gov is the U.S. government's official web portal to all federal, state and local government web resources and services.